Time,TemperatureF,DewpointF,PressureIn,WindDirection,WindDirectionDegrees,WindSpeedMPH,WindSpeedGustMPH,Humidity,HourlyPrecipIn,Conditions,Clouds,dailyrainin,SoftwareType,DateUTC
2013-01-23 00:00:00,13.9,-0.5,30.22,NNW,328,7.0,7.0,52,0.00,,---,0.00,VWS V14.01,2013-01-23 05:00:00,
2013-01-23 00:01:00,13.8,-0.6,30.22,WNW,291,9.0,11.0,52,0.00,,---,0.00,VWS V14.01,2013-01-23 05:01:00,
2013-01-23 00:02:00,13.8,-0.2,30.22,WNW,299,8.0,11.0,53,0.00,,---,0.00,VWS V14.01,2013-01-23 05:02:00,
2013-01-23 00:05:00,13.7,-0.2,30.22,West,269,10.0,11.0,53,0.00,,---,0.00,VWS V14.01,2013-01-23 05:05:00,
2013-01-23 00:07:00,13.7,-0.2,30.22,NW,315,8.0,17.0,53,0.00,,---,0.00,VWS V14.01,2013-01-23 05:07:00,
2013-01-23 00:10:00,13.0,-2.6,30.22,WNW,299,5.0,11.0,49,0.00,,---,0.00,VWS V14.01,2013-01-23 05:10:00,
2013-01-23 00:12:00,13.7,-0.6,30.22,WNW,288,8.0,9.0,52,0.00,,---,0.00,VWS V14.01,2013-01-23 05:12:00,
2013-01-23 00:15:00,13.6,-0.8,30.22,NW,310,4.0,14.0,52,0.00,,---,0.00,VWS V14.01,2013-01-23 05:15:00,
2013-01-23 00:17:00,13.6,-0.3,30.22,West,277,7.0,8.0,53,0.00,,---,0.00,VWS V14.01,2013-01-23 05:17:00,
2013-01-23 00:20:00,13.5,-0.4,30.22,West,269,6.0,13.0,53,0.00,,---,0.00,VWS V14.01,2013-01-23 05:20:00,
2013-01-23 00:22:00,13.5,-0.8,30.22,NW,310,9.0,15.0,52,0.00,,---,0.00,VWS V14.01,2013-01-23 05:22:00,
2013-01-23 00:25:00,13.5,-0.8,30.22,West,263,5.0,15.0,52,0.00,,---,0.00,VWS V14.01,2013-01-23 05:25:00,
2013-01-23 00:27:00,13.5,-0.8,30.22,WNW,290,9.0,11.0,52,0.00,,---,0.00,VWS V14.01,2013-01-23 05:27:00,
2013-01-23 00:30:00,13.5,-1.2,30.22,WNW,285,7.0,16.0,51,0.00,,---,0.00,VWS V14.01,2013-01-23 05:30:00,
2013-01-23 00:32:00,13.4,-1.3,30.21,WNW,286,5.0,16.0,51,0.00,,---,0.00,VWS V14.01,2013-01-23 05:32:00,
2013-01-23 00:35:00,13.4,-1.8,30.21,NW,320,13.0,16.0,50,0.00,,---,0.00,VWS V14.01,2013-01-23 05:35:00,
2013-01-23 00:37:00,13.4,-1.8,30.21,NW,323,7.0,13.0,50,0.00,,---,0.00,VWS V14.01,2013-01-23 05:37:00,
2013-01-23 00:40:00,13.4,-2.2,30.21,WNW,292,15.0,18.0,49,0.00,,---,0.00,VWS V14.01,2013-01-23 05:40:00,
2013-01-23 00:42:00,13.4,-2.6,30.21,NW,313,4.0,20.0,48,0.00,,---,0.00,VWS V14.01,2013-01-23 05:42:00,
2013-01-23 00:45:00,13.3,-2.3,30.21,NW,311,6.0,20.0,49,0.00,,---,0.00,VWS V14.01,2013-01-23 05:45:00,
2013-01-23 00:47:00,13.2,-2.8,30.21,WSW,257,9.0,15.0,48,0.00,,---,0.00,VWS V14.01,2013-01-23 05:47:00,
2013-01-23 00:50:00,13.2,-2.8,30.21,WNW,298,8.0,15.0,48,0.00,,---,0.00,VWS V14.01,2013-01-23 05:50:00,
2013-01-23 00:52:00,13.2,-2.8,30.21,WNW,292,8.0,8.0,48,0.00,,---,0.00,VWS V14.01,2013-01-23 05:52:00,
2013-01-23 00:55:00,13.2,-2.8,30.22,WNW,301,5.0,11.0,48,0.00,,---,0.00,VWS V14.01,2013-01-23 05:55:00,
2013-01-23 00:57:00,13.1,-2.5,30.22,NW,309,3.0,10.0,49,0.00,,---,0.00,VWS V14.01,2013-01-23 05:57:00,
2013-01-23 01:00:00,13.1,-2.5,30.22,WNW,282,9.0,10.0,49,0.00,,---,0.00,VWS V14.01,2013-01-23 06:00:00,
2013-01-23 01:02:00,13.0,-2.6,30.22,West,279,4.0,10.0,49,0.00,,---,0.00,VWS V14.01,2013-01-23 06:02:00,
2013-01-23 01:05:00,13.0,-2.6,30.22,WNW,296,7.0,11.0,49,0.00,,---,0.00,VWS V14.01,2013-01-23 06:05:00,
2013-01-23 01:07:00,13.0,-2.6,30.22,WNW,301,5.0,11.0,49,0.00,,---,0.00,VWS V14.01,2013-01-23 06:07:00,
2013-01-23 01:10:00,13.0,-2.6,30.22,WNW,299,5.0,11.0,49,0.00,,---,0.00,VWS V14.01,2013-01-23 06:10:00,
2013-01-23 01:12:00,13.0,-2.6,30.22,NW,313,12.0,12.0,49,0.00,,---,0.00,VWS V14.01,2013-01-23 06:12:00,
2013-01-23 01:15:00,13.0,-2.6,30.22,NNW,329,8.0,12.0,49,0.00,,---,0.00,VWS V14.01,2013-01-23 06:15:00,
2013-01-23 01:17:00,13.0,-2.6,30.22,NW,323,4.0,12.0,49,0.00,,---,0.00,VWS V14.01,2013-01-23 06:17:00,
2013-01-23 01:20:00,12.9,-2.7,30.22,NW,315,1.0,12.0,49,0.00,,---,0.00,VWS V14.01,2013-01-23 06:20:00,
2013-01-23 01:22:00,12.9,-2.7,30.22,WNW,301,5.0,11.0,49,0.00,,---,0.00,VWS V14.01,2013-01-23 06:22:00,
2013-01-23 01:25:00,12.9,-2.7,30.22,West,279,6.0,11.0,49,0.00,,---,0.00,VWS V14.01,2013-01-23 06:25:00,
2013-01-23 01:27:00,12.8,-2.3,30.22,WNW,298,8.0,9.0,50,0.00,,---,0.00,VWS V14.01,2013-01-23 06:27:00,
2013-01-23 01:30:00,12.8,-2.7,30.22,WNW,302,4.0,11.0,49,0.00,,---,0.00,VWS V14.01,2013-01-23 06:30:00,
2013-01-23 01:32:00,12.8,-2.7,30.22,WNW,287,11.0,12.0,49,0.00,,---,0.00,VWS V14.01,2013-01-23 06:32:00,
2013-01-23 01:35:00,12.8,-2.7,30.22,WNW,292,12.0,12.0,49,0.00,,---,0.00,VWS V14.01,2013-01-23 06:35:00,
2013-01-23 01:37:00,12.8,-2.3,30.22,NW,312,6.0,13.0,50,0.00,,---,0.00,VWS V14.01,2013-01-23 06:37:00,
2013-01-23 01:40:00,12.8,-2.3,30.22,NW,307,4.0,13.0,50,0.00,,---,0.00,VWS V14.01,2013-01-23 06:40:00,
2013-01-23 01:42:00,12.8,-2.3,30.22,WNW,300,8.0,15.0,50,0.00,,---,0.00,VWS V14.01,2013-01-23 06:42:00,
2013-01-23 01:45:00,12.8,-2.3,30.22,WNW,292,6.0,15.0,50,0.00,,---,0.00,VWS V14.01,2013-01-23 06:45:00,
2013-01-23 01:47:00,12.8,-2.3,30.23,NW,304,9.0,17.0,50,0.00,,---,0.00,VWS V14.01,2013-01-23 06:47:00,
2013-01-23 01:50:00,12.8,-2.3,30.23,NW,310,12.0,17.0,50,0.00,,---,0.00,VWS V14.01,2013-01-23 06:50:00,
2013-01-23 01:52:00,12.8,-2.3,30.23,NNW,335,7.0,12.0,50,0.00,,---,0.00,VWS V14.01,2013-01-23 06:52:00,
2013-01-23 01:55:00,12.8,-2.3,30.23,NW,319,8.0,13.0,50,0.00,,---,0.00,VWS V14.01,2013-01-23 06:55:00,
2013-01-23 01:57:00,12.8,-2.3,30.23,West,261,5.0,14.0,50,0.00,,---,0.00,VWS V14.01,2013-01-23 06:57:00,
2013-01-23 02:00:00,12.8,-2.3,30.23,WNW,298,8.0,16.0,50,0.00,,---,0.00,VWS V14.01,2013-01-23 07:00:00,
2013-01-23 02:02:00,12.8,-2.3,30.23,WNW,287,4.0,13.0,50,0.00,,---,0.00,VWS V14.01,2013-01-23 07:02:00,
2013-01-23 02:05:00,12.8,-2.3,30.23,WNW,286,8.0,13.0,50,0.00,,---,0.00,VWS V14.01,2013-01-23 07:05:00,
2013-01-23 02:07:00,12.8,-2.3,30.23,NW,313,7.0,9.0,50,0.00,,---,0.00,VWS V14.01,2013-01-23 07:07:00,
2013-01-23 02:10:00,12.7,-2.0,30.23,WNW,300,8.0,10.0,51,0.00,,---,0.00,VWS V14.01,2013-01-23 07:10:00,
2013-01-23 02:12:00,12.7,-2.0,30.23,West,271,7.0,12.0,51,0.00,,---,0.00,VWS V14.01,2013-01-23 07:12:00,
2013-01-23 02:15:00,12.7,-2.0,30.23,WNW,296,6.0,12.0,51,0.00,,---,0.00,VWS V14.01,2013-01-23 07:15:00,
2013-01-23 02:17:00,12.7,-1.6,30.23,West,278,2.0,9.0,52,0.00,,---,0.00,VWS V14.01,2013-01-23 07:17:00,
2013-01-23 02:20:00,12.7,-1.6,30.23,WNW,292,3.0,13.0,52,0.00,,---,0.00,VWS V14.01,2013-01-23 07:20:00,
2013-01-23 02:22:00,12.7,-1.2,30.23,WNW,290,8.0,12.0,53,0.00,,---,0.00,VWS V14.01,2013-01-23 07:22:00,
2013-01-23 02:25:00,12.7,-1.2,30.23,WNW,296,5.0,12.0,53,0.00,,---,0.00,VWS V14.01,2013-01-23 07:25:00,
2013-01-23 02:27:00,12.7,-1.6,30.24,NW,317,8.0,18.0,52,0.00,,---,0.00,VWS V14.01,2013-01-23 07:27:00,
2013-01-23 02:30:00,12.7,-1.6,30.24,WNW,292,8.0,18.0,52,0.00,,---,0.00,VWS V14.01,2013-01-23 07:30:00,
2013-01-23 02:32:00,12.6,-1.7,30.24,NW,313,10.0,17.0,52,0.00,,---,0.00,VWS V14.01,2013-01-23 07:32:00,
2013-01-23 02:35:00,12.7,-1.6,30.23,West,261,10.0,17.0,52,0.00,,---,0.00,VWS V14.01,2013-01-23 07:35:00,
2013-01-23 02:37:00,12.7,-1.6,30.24,NW,325,8.0,15.0,52,0.00,,---,0.00,VWS V14.01,2013-01-23 07:37:00,
2013-01-23 02:40:00,12.7,-1.6,30.24,NW,317,9.0,15.0,52,0.00,,---,0.00,VWS V14.01,2013-01-23 07:40:00,
2013-01-23 02:42:00,12.6,-1.7,30.23,WNW,299,7.0,13.0,52,0.00,,---,0.00,VWS V14.01,2013-01-23 07:42:00,
2013-01-23 02:45:00,12.6,-1.7,30.24,NW,315,5.0,13.0,52,0.00,,---,0.00,VWS V14.01,2013-01-23 07:45:00,
2013-01-23 02:47:00,12.6,-1.7,30.24,NW,320,5.0,14.0,52,0.00,,---,0.00,VWS V14.01,2013-01-23 07:47:00,
2013-01-23 02:50:00,12.6,-1.7,30.24,NW,309,6.0,14.0,52,0.00,,---,0.00,VWS V14.01,2013-01-23 07:50:00,
2013-01-23 02:52:00,12.5,-1.4,30.24,NW,310,6.0,8.0,53,0.00,,---,0.00,VWS V14.01,2013-01-23 07:52:00,
2013-01-23 02:55:00,12.5,-1.4,30.24,NW,319,6.0,11.0,53,0.00,,---,0.00,VWS V14.01,2013-01-23 07:55:00,
2013-01-23 02:57:00,12.4,-1.5,30.24,WNW,293,7.0,8.0,53,0.00,,---,0.00,VWS V14.01,2013-01-23 07:57:00,
2013-01-23 03:00:00,12.4,-1.5,30.24,WNW,297,4.0,10.0,53,0.00,,---,0.00,VWS V14.01,2013-01-23 08:00:00,
2013-01-23 03:02:00,12.4,-1.5,30.24,NW,315,4.0,9.0,53,0.00,,---,0.00,VWS V14.01,2013-01-23 08:02:00,
2013-01-23 03:05:00,12.3,-1.2,30.24,WNW,288,6.0,9.0,54,0.00,,---,0.00,VWS V14.01,2013-01-23 08:05:00,
2013-01-23 03:07:00,12.3,-1.2,30.24,NW,309,5.0,11.0,54,0.00,,---,0.00,VWS V14.01,2013-01-23 08:07:00,
2013-01-23 03:10:00,12.3,-1.6,30.24,NW,308,4.0,11.0,53,0.00,,---,0.00,VWS V14.01,2013-01-23 08:10:00,
2013-01-23 03:12:00,12.3,-1.6,30.24,NW,325,6.0,10.0,53,0.00,,---,0.00,VWS V14.01,2013-01-23 08:12:00,
2013-01-23 03:15:00,12.3,-1.2,30.24,WNW,284,5.0,10.0,54,0.00,,---,0.00,VWS V14.01,2013-01-23 08:15:00,
2013-01-23 03:17:00,12.3,-1.2,30.24,NW,320,6.0,11.0,54,0.00,,---,0.00,VWS V14.01,2013-01-23 08:17:00,
2013-01-23 03:20:00,12.3,-0.8,30.23,NW,314,4.0,11.0,55,0.00,,---,0.00,VWS V14.01,2013-01-23 08:20:00,
2013-01-23 03:22:00,12.2,-0.9,30.24,NW,311,4.0,11.0,55,0.00,,---,0.00,VWS V14.01,2013-01-23 08:22:00,
2013-01-23 03:25:00,12.2,-0.9,30.23,WNW,282,9.0,11.0,55,0.00,,---,0.00,VWS V14.01,2013-01-23 08:25:00,
2013-01-23 03:27:00,12.2,-0.9,30.23,NW,310,4.0,13.0,55,0.00,,---,0.00,VWS V14.01,2013-01-23 08:27:00,
2013-01-23 03:30:00,12.3,-0.4,30.23,NW,319,8.0,13.0,56,0.00,,---,0.00,VWS V14.01,2013-01-23 08:30:00,
2013-01-23 03:32:00,12.2,-0.9,30.23,NW,307,5.0,10.0,55,0.00,,---,0.00,VWS V14.01,2013-01-23 08:32:00,
2013-01-23 03:35:00,12.2,-0.9,30.23,NW,305,4.0,10.0,55,0.00,,---,0.00,VWS V14.01,2013-01-23 08:35:00,
2013-01-23 03:37:00,12.2,-0.9,30.23,NW,306,5.0,8.0,55,0.00,,---,0.00,VWS V14.01,2013-01-23 08:37:00,
2013-01-23 03:40:00,12.2,-0.9,30.23,WNW,288,6.0,8.0,55,0.00,,---,0.00,VWS V14.01,2013-01-23 08:40:00,
2013-01-23 03:42:00,12.2,-0.9,30.23,WNW,293,4.0,9.0,55,0.00,,---,0.00,VWS V14.01,2013-01-23 08:42:00,
2013-01-23 03:45:00,12.1,-1.0,30.23,WNW,291,4.0,9.0,55,0.00,,---,0.00,VWS V14.01,2013-01-23 08:45:00,
2013-01-23 03:47:00,12.1,-0.6,30.23,WNW,303,2.0,9.0,56,0.00,,---,0.00,VWS V14.01,2013-01-23 08:47:00,
2013-01-23 03:50:00,12.1,-0.6,30.23,WNW,294,3.0,9.0,56,0.00,,---,0.00,VWS V14.01,2013-01-23 08:50:00,
2013-01-23 03:52:00,12.0,-0.7,30.23,NW,313,4.0,6.0,56,0.00,,---,0.00,VWS V14.01,2013-01-23 08:52:00,
2013-01-23 03:55:00,12.0,-0.7,30.23,NW,306,4.0,6.0,56,0.00,,---,0.00,VWS V14.01,2013-01-23 08:55:00,
2013-01-23 03:57:00,11.9,-0.8,30.23,WNW,301,4.0,7.0,56,0.00,,---,0.00,VWS V14.01,2013-01-23 08:57:00,
2013-01-23 04:00:00,11.9,-0.8,30.23,NW,317,6.0,8.0,56,0.00,,---,0.00,VWS V14.01,2013-01-23 09:00:00,
2013-01-23 04:02:00,11.9,-0.8,30.23,WNW,299,4.0,9.0,56,0.00,,---,0.00,VWS V14.01,2013-01-23 09:02:00,
2013-01-23 04:05:00,11.9,-0.4,30.23,NW,308,4.0,9.0,57,0.00,,---,0.00,VWS V14.01,2013-01-23 09:05:00,
2013-01-23 04:07:00,12.0,-0.7,30.23,West,259,5.0,7.0,56,0.00,,---,0.00,VWS V14.01,2013-01-23 09:07:00,
2013-01-23 04:10:00,11.9,-0.8,30.23,West,259,5.0,7.0,56,0.00,,---,0.00,VWS V14.01,2013-01-23 09:10:00,
2013-01-23 04:12:00,12.0,-0.7,30.23,West,259,5.0,5.0,56,0.00,,---,0.00,VWS V14.01,2013-01-23 09:12:00,
2013-01-23 04:15:00,11.9,-0.8,30.23,West,259,5.0,5.0,56,0.00,,---,0.00,VWS V14.01,2013-01-23 09:15:00,
2013-01-23 04:17:00,12.0,-0.7,30.23,West,259,5.0,5.0,56,0.00,,---,0.00,VWS V14.01,2013-01-23 09:17:00,
2013-01-23 04:20:00,12.0,-0.7,30.23,West,259,5.0,5.0,56,0.00,,---,0.00,VWS V14.01,2013-01-23 09:20:00,
2013-01-23 04:22:00,12.0,-0.3,30.23,West,259,5.0,5.0,57,0.00,,---,0.00,VWS V14.01,2013-01-23 09:22:00,
2013-01-23 04:25:00,11.9,-0.4,30.23,West,259,5.0,5.0,57,0.00,,---,0.00,VWS V14.01,2013-01-23 09:25:00,
2013-01-23 04:27:00,11.9,-0.4,30.23,West,259,5.0,5.0,57,0.00,,---,0.00,VWS V14.01,2013-01-23 09:27:00,
2013-01-23 04:30:00,11.8,-0.5,30.23,West,259,5.0,5.0,57,0.00,,---,0.00,VWS V14.01,2013-01-23 09:30:00,
2013-01-23 04:32:00,11.8,-0.5,30.23,WNW,290,4.0,6.0,57,0.00,,---,0.00,VWS V14.01,2013-01-23 09:32:00,
2013-01-23 04:35:00,11.8,-0.5,30.23,WNW,291,6.0,8.0,57,0.00,,---,0.00,VWS V14.01,2013-01-23 09:35:00,
2013-01-23 04:37:00,11.8,-0.5,30.23,WNW,282,2.0,10.0,57,0.00,,---,0.00,VWS V14.01,2013-01-23 09:37:00,
2013-01-23 04:40:00,11.8,-0.5,30.23,NW,323,4.0,10.0,57,0.00,,---,0.00,VWS V14.01,2013-01-23 09:40:00,
2013-01-23 04:42:00,11.8,-0.5,30.23,NW,317,4.0,9.0,57,0.00,,---,0.00,VWS V14.01,2013-01-23 09:42:00,
2013-01-23 04:45:00,11.8,-0.5,30.23,NW,304,3.0,9.0,57,0.00,,---,0.00,VWS V14.01,2013-01-23 09:45:00,
2013-01-23 04:47:00,11.8,-0.5,30.24,WNW,288,4.0,9.0,57,0.00,,---,0.00,VWS V14.01,2013-01-23 09:47:00,
2013-01-23 04:50:00,11.7,-0.6,30.24,NW,304,3.0,10.0,57,0.00,,---,0.00,VWS V14.01,2013-01-23 09:50:00,
2013-01-23 04:52:00,11.7,-0.6,30.24,WNW,286,5.0,8.0,57,0.00,,---,0.00,VWS V14.01,2013-01-23 09:52:00,
2013-01-23 04:55:00,11.7,-0.2,30.24,WNW,282,4.0,8.0,58,0.00,,---,0.00,VWS V14.01,2013-01-23 09:55:00,
2013-01-23 04:57:00,11.6,-0.7,30.24,NW,311,8.0,8.0,57,0.00,,---,0.00,VWS V14.01,2013-01-23 09:57:00,
2013-01-23 05:00:00,11.7,-0.2,30.24,NW,312,4.0,9.0,58,0.00,,---,0.00,VWS V14.01,2013-01-23 10:00:00,
2013-01-23 05:03:00,11.7,-0.2,30.24,WNW,296,1.0,7.0,58,0.00,,---,0.00,VWS V14.01,2013-01-23 10:03:00,
2013-01-23 05:05:00,11.6,-0.3,30.24,WNW,291,3.0,7.0,58,0.00,,---,0.00,VWS V14.01,2013-01-23 10:05:00,
2013-01-23 05:08:00,11.6,-0.3,30.24,NW,304,2.0,7.0,58,0.00,,---,0.00,VWS V14.01,2013-01-23 10:08:00,
2013-01-23 05:10:00,11.6,-0.3,30.24,NW,307,3.0,7.0,58,0.00,,---,0.00,VWS V14.01,2013-01-23 10:10:00,
2013-01-23 05:13:00,11.6,-0.3,30.24,NW,310,4.0,8.0,58,0.00,,---,0.00,VWS V14.01,2013-01-23 10:13:00,
2013-01-23 05:15:00,11.6,-0.3,30.24,WNW,302,4.0,8.0,58,0.00,,---,0.00,VWS V14.01,2013-01-23 10:15:00,
2013-01-23 05:17:00,11.6,-0.3,30.24,WNW,291,6.0,8.0,58,0.00,,---,0.00,VWS V14.01,2013-01-23 10:17:00,
2013-01-23 05:20:00,11.6,-0.3,30.24,WNW,299,3.0,8.0,58,0.00,,---,0.00,VWS V14.01,2013-01-23 10:20:00,
2013-01-23 05:22:00,11.6,-0.3,30.24,WNW,294,2.0,7.0,58,0.00,,---,0.00,VWS V14.01,2013-01-23 10:22:00,
2013-01-23 05:25:00,11.6,-0.3,30.24,WNW,297,6.0,7.0,58,0.00,,---,0.00,VWS V14.01,2013-01-23 10:25:00,
2013-01-23 05:27:00,11.6,-0.3,30.24,WNW,301,3.0,9.0,58,0.00,,---,0.00,VWS V14.01,2013-01-23 10:27:00,
2013-01-23 05:30:00,11.5,-0.4,30.24,NW,305,2.0,9.0,58,0.00,,---,0.00,VWS V14.01,2013-01-23 10:30:00,
2013-01-23 05:32:00,11.5,0.0,30.24,NW,306,2.0,8.0,59,0.00,,---,0.00,VWS V14.01,2013-01-23 10:32:00,
2013-01-23 05:35:00,11.4,-0.1,30.24,NW,304,4.0,8.0,59,0.00,,---,0.00,VWS V14.01,2013-01-23 10:35:00,
2013-01-23 05:37:00,11.4,0.2,30.24,West,277,4.0,7.0,60,0.00,,---,0.00,VWS V14.01,2013-01-23 10:37:00,
2013-01-23 05:40:00,11.4,-0.1,30.24,WNW,291,1.0,7.0,59,0.00,,---,0.00,VWS V14.01,2013-01-23 10:40:00,
2013-01-23 05:42:00,11.4,0.2,30.24,WNW,294,6.0,8.0,60,0.00,,---,0.00,VWS V14.01,2013-01-23 10:42:00,
2013-01-23 05:45:00,11.4,-0.1,30.24,WNW,300,4.0,8.0,59,0.00,,---,0.00,VWS V14.01,2013-01-23 10:45:00,
2013-01-23 05:47:00,11.4,-0.1,30.24,West,267,8.0,8.0,59,0.00,,---,0.00,VWS V14.01,2013-01-23 10:47:00,
2013-01-23 05:50:00,11.4,0.2,30.24,WNW,302,3.0,8.0,60,0.00,,---,0.00,VWS V14.01,2013-01-23 10:50:00,
2013-01-23 05:52:00,11.4,0.2,30.24,NW,306,4.0,6.0,60,0.00,,---,0.00,VWS V14.01,2013-01-23 10:52:00,
2013-01-23 05:55:00,11.4,0.2,30.24,WNW,298,2.0,6.0,60,0.00,,---,0.00,VWS V14.01,2013-01-23 10:55:00,
2013-01-23 05:57:00,11.3,0.5,30.24,WNW,287,1.0,6.0,61,0.00,,---,0.00,VWS V14.01,2013-01-23 10:57:00,
2013-01-23 06:00:00,11.4,0.6,30.24,WNW,284,3.0,9.0,61,0.00,,---,0.00,VWS V14.01,2013-01-23 11:00:00,
2013-01-23 06:02:00,11.3,0.1,30.24,NW,318,2.0,6.0,60,0.00,,---,0.00,VWS V14.01,2013-01-23 11:02:00,
2013-01-23 06:05:00,11.3,0.5,30.24,NW,315,5.0,7.0,61,0.00,,---,0.00,VWS V14.01,2013-01-23 11:05:00,
2013-01-23 06:07:00,11.2,0.0,30.25,NW,312,3.0,8.0,60,0.00,,---,0.00,VWS V14.01,2013-01-23 11:07:00,
2013-01-23 06:10:00,11.2,0.0,30.24,NW,307,3.0,8.0,60,0.00,,---,0.00,VWS V14.01,2013-01-23 11:10:00,
2013-01-23 06:12:00,11.3,0.1,30.24,NW,313,8.0,9.0,60,0.00,,---,0.00,VWS V14.01,2013-01-23 11:12:00,
2013-01-23 06:15:00,11.3,0.1,30.24,WNW,295,3.0,9.0,60,0.00,,---,0.00,VWS V14.01,2013-01-23 11:15:00,
2013-01-23 06:17:00,11.2,0.0,30.24,NW,309,4.0,6.0,60,0.00,,---,0.00,VWS V14.01,2013-01-23 11:17:00,
2013-01-23 06:20:00,11.3,0.1,30.24,NW,307,3.0,6.0,60,0.00,,---,0.00,VWS V14.01,2013-01-23 11:20:00,
2013-01-23 06:22:00,11.2,0.0,30.24,NW,306,2.0,6.0,60,0.00,,---,0.00,VWS V14.01,2013-01-23 11:22:00,
2013-01-23 06:25:00,11.2,0.0,30.24,NW,304,5.0,6.0,60,0.00,,---,0.00,VWS V14.01,2013-01-23 11:25:00,
2013-01-23 06:27:00,11.2,0.0,30.24,WNW,296,3.0,6.0,60,0.00,,---,0.00,VWS V14.01,2013-01-23 11:27:00,
2013-01-23 06:30:00,11.1,-0.1,30.24,NW,310,5.0,6.0,60,0.00,,---,0.00,VWS V14.01,2013-01-23 11:30:00,
2013-01-23 06:32:00,11.2,0.4,30.24,WNW,294,4.0,7.0,61,0.00,,---,0.00,VWS V14.01,2013-01-23 11:32:00,
2013-01-23 06:35:00,11.2,0.4,30.25,WNW,287,3.0,7.0,61,0.00,,---,0.00,VWS V14.01,2013-01-23 11:35:00,
2013-01-23 06:37:00,11.2,0.4,30.25,WNW,303,3.0,8.0,61,0.00,,---,0.00,VWS V14.01,2013-01-23 11:37:00,
2013-01-23 06:40:00,11.1,0.3,30.25,WNW,301,0.0,8.0,61,0.00,,---,0.00,VWS V14.01,2013-01-23 11:40:00,
2013-01-23 06:42:00,11.1,0.6,30.25,WNW,301,1.0,3.0,62,0.00,,---,0.00,VWS V14.01,2013-01-23 11:42:00,
2013-01-23 06:45:00,11.0,0.9,30.25,WNW,301,0.0,3.0,63,0.00,,---,0.00,VWS V14.01,2013-01-23 11:45:00,
2013-01-23 06:47:00,10.8,0.7,30.25,WNW,300,2.0,4.0,63,0.00,,---,0.00,VWS V14.01,2013-01-23 11:47:00,
2013-01-23 06:50:00,10.7,0.6,30.25,WNW,300,0.0,4.0,63,0.00,,---,0.00,VWS V14.01,2013-01-23 11:50:00,
2013-01-23 06:52:00,10.5,0.8,30.25,WNW,300,0.0,2.0,64,0.00,,---,0.00,VWS V14.01,2013-01-23 11:52:00,
2013-01-23 06:55:00,10.4,0.6,30.25,WNW,300,1.0,2.0,64,0.00,,---,0.00,VWS V14.01,2013-01-23 11:55:00,
2013-01-23 06:57:00,10.3,0.9,30.25,WNW,300,0.0,1.0,65,0.00,,---,0.00,VWS V14.01,2013-01-23 11:57:00,
2013-01-23 07:00:00,10.3,0.9,30.25,WNW,300,2.0,2.0,65,0.00,,---,0.00,VWS V14.01,2013-01-23 12:00:00,
2013-01-23 07:02:00,10.4,1.3,30.25,WNW,300,1.0,4.0,66,0.00,,---,0.00,VWS V14.01,2013-01-23 12:02:00,
2013-01-23 07:05:00,10.4,1.3,30.25,WNW,300,2.0,4.0,66,0.00,,---,0.00,VWS V14.01,2013-01-23 12:05:00,
2013-01-23 07:07:00,10.5,1.7,30.25,WNW,300,0.0,3.0,67,0.00,,---,0.00,VWS V14.01,2013-01-23 12:07:00,
2013-01-23 07:10:00,10.4,1.6,30.25,WNW,300,0.0,3.0,67,0.00,,---,0.00,VWS V14.01,2013-01-23 12:10:00,
2013-01-23 07:12:00,10.3,1.5,30.25,WNW,300,0.0,2.0,67,0.00,,---,0.00,VWS V14.01,2013-01-23 12:12:00,
2013-01-23 07:15:00,10.3,1.5,30.25,WNW,300,0.0,2.0,67,0.00,,---,0.00,VWS V14.01,2013-01-23 12:15:00,
2013-01-23 07:17:00,10.3,1.5,30.26,WNW,300,2.0,2.0,67,0.00,,---,0.00,VWS V14.01,2013-01-23 12:17:00,
2013-01-23 07:20:00,10.3,1.5,30.26,WNW,300,0.0,2.0,67,0.00,,---,0.00,VWS V14.01,2013-01-23 12:20:00,
2013-01-23 07:22:00,10.3,1.2,30.26,WNW,300,0.0,2.0,66,0.00,,---,0.00,VWS V14.01,2013-01-23 12:22:00,
2013-01-23 07:25:00,10.2,1.1,30.26,WNW,300,1.0,2.0,66,0.00,,---,0.00,VWS V14.01,2013-01-23 12:25:00,
2013-01-23 07:27:00,10.2,1.1,30.26,WNW,300,0.0,1.0,66,0.00,,---,0.00,VWS V14.01,2013-01-23 12:27:00,
2013-01-23 07:30:00,10.1,1.0,30.26,WNW,300,0.0,1.0,66,0.00,,---,0.00,VWS V14.01,2013-01-23 12:30:00,
2013-01-23 07:32:00,10.1,1.3,30.26,WNW,300,3.0,3.0,67,0.00,,---,0.00,VWS V14.01,2013-01-23 12:32:00,
2013-01-23 07:35:00,10.1,1.0,30.26,WNW,300,2.0,3.0,66,0.00,,---,0.00,VWS V14.01,2013-01-23 12:35:00,
2013-01-23 07:37:00,10.2,1.1,30.26,WNW,300,2.0,3.0,66,0.00,,---,0.00,VWS V14.01,2013-01-23 12:37:00,
2013-01-23 07:40:00,10.2,1.1,30.26,WNW,300,0.0,3.0,66,0.00,,---,0.00,VWS V14.01,2013-01-23 12:40:00,
2013-01-23 07:42:00,10.3,1.2,30.26,WNW,300,1.0,2.0,66,0.00,,---,0.00,VWS V14.01,2013-01-23 12:42:00,
2013-01-23 07:45:00,10.3,1.2,30.26,WNW,300,1.0,2.0,66,0.00,,---,0.00,VWS V14.01,2013-01-23 12:45:00,
2013-01-23 07:47:00,10.4,1.3,30.26,WNW,300,1.0,1.0,66,0.00,,---,0.00,VWS V14.01,2013-01-23 12:47:00,
2013-01-23 07:50:00,10.5,1.7,30.26,WNW,300,1.0,1.0,67,0.00,,---,0.00,VWS V14.01,2013-01-23 12:50:00,
2013-01-23 07:52:00,10.7,1.9,30.26,WNW,300,1.0,1.0,67,0.00,,---,0.00,VWS V14.01,2013-01-23 12:52:00,
2013-01-23 07:55:00,10.9,1.8,30.26,WNW,300,1.0,1.0,66,0.00,,---,0.00,VWS V14.01,2013-01-23 12:55:00,
2013-01-23 07:58:00,11.2,2.1,30.26,WNW,300,1.0,1.0,66,0.00,,---,0.00,VWS V14.01,2013-01-23 12:58:00,
2013-01-23 08:00:00,11.4,2.3,30.26,WNW,300,1.0,1.0,66,0.00,,---,0.00,VWS V14.01,2013-01-23 13:00:00,
2013-01-23 08:03:00,11.7,2.2,30.26,WNW,300,1.0,1.0,65,0.00,,---,0.00,VWS V14.01,2013-01-23 13:03:00,
2013-01-23 08:05:00,11.8,2.3,30.26,WNW,300,1.0,1.0,65,0.00,,---,0.00,VWS V14.01,2013-01-23 13:05:00,
2013-01-23 08:08:00,12.0,2.2,30.26,WNW,300,1.0,1.0,64,0.00,,---,0.00,VWS V14.01,2013-01-23 13:08:00,
2013-01-23 08:10:00,12.1,2.3,30.26,WNW,300,1.0,1.0,64,0.00,,---,0.00,VWS V14.01,2013-01-23 13:10:00,
2013-01-23 08:13:00,12.2,2.0,30.26,WNW,300,1.0,1.0,63,0.00,,---,0.00,VWS V14.01,2013-01-23 13:13:00,
2013-01-23 08:15:00,12.3,2.1,30.26,WNW,300,1.0,1.0,63,0.00,,---,0.00,VWS V14.01,2013-01-23 13:15:00,
2013-01-23 08:17:00,12.5,2.0,30.26,WNW,300,1.0,1.0,62,0.00,,---,0.00,VWS V14.01,2013-01-23 13:17:00,
2013-01-23 08:20:00,12.5,2.0,30.26,WNW,300,1.0,1.0,62,0.00,,---,0.00,VWS V14.01,2013-01-23 13:20:00,
2013-01-23 08:22:00,12.5,1.6,30.27,WNW,300,1.0,1.0,61,0.00,,---,0.00,VWS V14.01,2013-01-23 13:22:00,
2013-01-23 08:25:00,12.6,1.7,30.26,WNW,298,2.0,3.0,61,0.00,,---,0.00,VWS V14.01,2013-01-23 13:25:00,
2013-01-23 08:27:00,12.7,1.8,30.27,WNW,293,3.0,10.0,61,0.00,,---,0.00,VWS V14.01,2013-01-23 13:27:00,
2013-01-23 08:30:00,12.8,2.2,30.27,WSW,258,0.0,10.0,62,0.00,,---,0.00,VWS V14.01,2013-01-23 13:30:00,
2013-01-23 08:32:00,13.0,2.1,30.27,WNW,302,2.0,7.0,61,0.00,,---,0.00,VWS V14.01,2013-01-23 13:32:00,
2013-01-23 08:35:00,13.0,2.1,30.27,WNW,288,4.0,7.0,61,0.00,,---,0.00,VWS V14.01,2013-01-23 13:35:00,
2013-01-23 08:37:00,13.2,1.9,30.26,WNW,288,5.0,9.0,60,0.00,,---,0.00,VWS V14.01,2013-01-23 13:37:00,
2013-01-23 08:40:00,13.2,1.9,30.26,WNW,285,4.0,9.0,60,0.00,,---,0.00,VWS V14.01,2013-01-23 13:40:00,
2013-01-23 08:42:00,13.4,2.1,30.26,WNW,283,4.0,9.0,60,0.00,,---,0.00,VWS V14.01,2013-01-23 13:42:00,
2013-01-23 08:45:00,13.4,2.1,30.26,WNW,289,5.0,9.0,60,0.00,,---,0.00,VWS V14.01,2013-01-23 13:45:00,
2013-01-23 08:47:00,13.5,2.2,30.26,WNW,300,3.0,12.0,60,0.00,,---,0.00,VWS V14.01,2013-01-23 13:47:00,
2013-01-23 08:50:00,13.7,2.0,30.26,WNW,286,2.0,12.0,59,0.00,,---,0.00,VWS V14.01,2013-01-23 13:50:00,
2013-01-23 08:52:00,13.8,1.8,30.26,West,273,2.0,12.0,58,0.00,,---,0.00,VWS V14.01,2013-01-23 13:52:00,
2013-01-23 08:55:00,13.8,1.8,30.27,NW,312,4.0,12.0,58,0.00,,---,0.00,VWS V14.01,2013-01-23 13:55:00,
2013-01-23 08:57:00,14.0,2.3,30.26,WNW,303,8.0,13.0,59,0.00,,---,0.00,VWS V14.01,2013-01-23 13:57:00,
2013-01-23 09:00:00,14.0,2.0,30.26,NW,309,2.0,13.0,58,0.00,,---,0.00,VWS V14.01,2013-01-23 14:00:00,
2013-01-23 09:02:00,14.2,2.5,30.26,NW,309,5.0,7.0,59,0.00,,---,0.00,VWS V14.01,2013-01-23 14:02:00,
2013-01-23 09:05:00,14.3,2.2,30.26,WNW,288,3.0,9.0,58,0.00,,---,0.00,VWS V14.01,2013-01-23 14:05:00,
2013-01-23 09:07:00,14.4,2.3,30.26,WSW,254,4.0,10.0,58,0.00,,---,0.00,VWS V14.01,2013-01-23 14:07:00,
2013-01-23 09:10:00,14.4,2.3,30.26,WNW,292,12.0,13.0,58,0.00,,---,0.00,VWS V14.01,2013-01-23 14:10:00,
2013-01-23 09:12:00,14.6,2.2,30.26,West,279,3.0,13.0,57,0.00,,---,0.00,VWS V14.01,2013-01-23 14:12:00,
2013-01-23 09:15:00,14.7,2.2,30.26,WNW,298,6.0,13.0,57,0.00,,---,0.00,VWS V14.01,2013-01-23 14:15:00,
2013-01-23 09:17:00,14.8,2.0,30.26,West,277,9.0,12.0,56,0.00,,---,0.00,VWS V14.01,2013-01-23 14:17:00,
2013-01-23 09:20:00,14.9,2.0,30.26,WNW,284,7.0,12.0,56,0.00,,---,0.00,VWS V14.01,2013-01-23 14:20:00,
2013-01-23 09:22:00,15.1,2.6,30.26,WNW,298,4.0,8.0,57,0.00,,---,0.00,VWS V14.01,2013-01-23 14:22:00,
2013-01-23 09:25:00,15.2,2.3,30.26,NW,310,8.0,10.0,56,0.00,,---,0.00,VWS V14.01,2013-01-23 14:25:00,
2013-01-23 09:27:00,15.4,2.5,30.26,WNW,295,6.0,10.0,56,0.00,,---,0.00,VWS V14.01,2013-01-23 14:27:00,
2013-01-23 09:30:00,15.5,2.2,30.26,WNW,296,9.0,18.0,55,0.00,,---,0.00,VWS V14.01,2013-01-23 14:30:00,
2013-01-23 09:32:00,15.4,1.7,30.26,NW,304,8.0,14.0,54,0.00,,---,0.00,VWS V14.01,2013-01-23 14:32:00,
2013-01-23 09:35:00,15.4,1.7,30.26,NW,316,17.0,17.0,54,0.00,,---,0.00,VWS V14.01,2013-01-23 14:35:00,
2013-01-23 09:37:00,15.5,1.4,30.26,WNW,283,4.0,17.0,53,0.00,,---,0.00,VWS V14.01,2013-01-23 14:37:00,
2013-01-23 09:40:00,15.5,1.8,30.26,WSW,256,3.0,17.0,54,0.00,,---,0.00,VWS V14.01,2013-01-23 14:40:00,
2013-01-23 09:42:00,15.5,1.4,30.26,WNW,288,10.0,15.0,53,0.00,,---,0.00,VWS V14.01,2013-01-23 14:42:00,
2013-01-23 09:45:00,15.5,1.4,30.26,WNW,294,4.0,15.0,53,0.00,,---,0.00,VWS V14.01,2013-01-23 14:45:00,
2013-01-23 09:47:00,15.8,2.5,30.26,WNW,287,5.0,12.0,55,0.00,,---,0.00,VWS V14.01,2013-01-23 14:47:00,
2013-01-23 09:50:00,15.9,1.8,30.26,West,261,3.0,13.0,53,0.00,,---,0.00,VWS V14.01,2013-01-23 14:50:00,
2013-01-23 09:52:00,15.9,1.8,30.26,WNW,291,4.0,7.0,53,0.00,,---,0.00,VWS V14.01,2013-01-23 14:52:00,
2013-01-23 09:55:00,16.1,2.0,30.27,WNW,284,12.0,13.0,53,0.00,,---,0.00,VWS V14.01,2013-01-23 14:55:00,
2013-01-23 09:57:00,16.3,1.8,30.27,West,275,5.0,13.0,52,0.00,,---,0.00,VWS V14.01,2013-01-23 14:57:00,
2013-01-23 10:00:00,16.3,1.4,30.27,WNW,294,12.0,13.0,51,0.00,,---,0.00,VWS V14.01,2013-01-23 15:00:00,
2013-01-23 10:02:00,16.4,1.5,30.27,SW,228,6.0,13.0,51,0.00,,---,0.00,VWS V14.01,2013-01-23 15:02:00,
2013-01-23 10:05:00,16.4,1.5,30.27,NW,309,10.0,13.0,51,0.00,,---,0.00,VWS V14.01,2013-01-23 15:05:00,
2013-01-23 10:07:00,16.6,1.2,30.27,NW,323,5.0,12.0,50,0.00,,---,0.00,VWS V14.01,2013-01-23 15:07:00,
2013-01-23 10:10:00,16.7,1.7,30.27,WSW,250,4.0,12.0,51,0.00,,---,0.00,VWS V14.01,2013-01-23 15:10:00,
2013-01-23 10:12:00,16.7,1.3,30.27,WNW,286,9.0,14.0,50,0.00,,---,0.00,VWS V14.01,2013-01-23 15:12:00,
2013-01-23 10:15:00,16.7,0.9,30.27,West,279,6.0,14.0,49,0.00,,---,0.00,VWS V14.01,2013-01-23 15:15:00,
2013-01-23 10:17:00,16.8,1.0,30.27,WNW,301,4.0,14.0,49,0.00,,---,0.00,VWS V14.01,2013-01-23 15:17:00,
2013-01-23 10:20:00,16.8,1.4,30.27,WNW,300,11.0,14.0,50,0.00,,---,0.00,VWS V14.01,2013-01-23 15:20:00,
2013-01-23 10:22:00,17.0,1.1,30.27,WNW,294,14.0,15.0,49,0.00,,---,0.00,VWS V14.01,2013-01-23 15:22:00,
2013-01-23 10:25:00,17.0,1.1,30.27,WSW,258,6.0,15.0,49,0.00,,---,0.00,VWS V14.01,2013-01-23 15:25:00,
2013-01-23 10:27:00,17.1,1.7,30.27,WNW,303,8.0,14.0,50,0.00,,---,0.00,VWS V14.01,2013-01-23 15:27:00,
2013-01-23 10:30:00,17.1,1.7,30.27,West,267,10.0,16.0,50,0.00,,---,0.00,VWS V14.01,2013-01-23 15:30:00,
2013-01-23 10:32:00,17.1,1.2,30.27,WNW,302,15.0,15.0,49,0.00,,---,0.00,VWS V14.01,2013-01-23 15:32:00,
2013-01-23 10:35:00,17.1,1.2,30.27,WNW,283,12.0,16.0,49,0.00,,---,0.00,VWS V14.01,2013-01-23 15:35:00,
2013-01-23 10:37:00,17.1,1.2,30.27,WNW,294,8.0,16.0,49,0.00,,---,0.00,VWS V14.01,2013-01-23 15:37:00,
2013-01-23 10:40:00,17.2,1.3,30.27,West,272,4.0,16.0,49,0.00,,---,0.00,VWS V14.01,2013-01-23 15:40:00,
2013-01-23 10:42:00,17.4,1.5,30.26,West,275,4.0,14.0,49,0.00,,---,0.00,VWS V14.01,2013-01-23 15:42:00,
2013-01-23 10:45:00,17.4,1.1,30.26,WNW,285,5.0,14.0,48,0.00,,---,0.00,VWS V14.01,2013-01-23 15:45:00,
2013-01-23 10:47:00,17.5,1.6,30.26,West,269,2.0,14.0,49,0.00,,---,0.00,VWS V14.01,2013-01-23 15:47:00,
2013-01-23 10:50:00,17.6,1.7,30.26,WNW,290,7.0,14.0,49,0.00,,---,0.00,VWS V14.01,2013-01-23 15:50:00,
2013-01-23 10:52:00,17.8,1.9,30.26,NW,318,5.0,8.0,49,0.00,,---,0.00,VWS V14.01,2013-01-23 15:52:00,
2013-01-23 10:55:00,18.1,2.2,30.26,WNW,286,8.0,15.0,49,0.00,,---,0.00,VWS V14.01,2013-01-23 15:55:00,
2013-01-23 10:57:00,17.9,1.5,30.26,WNW,302,9.0,15.0,48,0.00,,---,0.00,VWS V14.01,2013-01-23 15:57:00,
2013-01-23 11:00:00,17.8,1.9,30.26,NW,317,12.0,20.0,49,0.00,,---,0.00,VWS V14.01,2013-01-23 16:00:00,
2013-01-23 11:02:00,17.8,1.9,30.26,West,259,6.0,14.0,49,0.00,,---,0.00,VWS V14.01,2013-01-23 16:02:00,
2013-01-23 11:05:00,17.8,1.9,30.26,West,261,4.0,14.0,49,0.00,,---,0.00,VWS V14.01,2013-01-23 16:05:00,
2013-01-23 11:07:00,17.6,1.7,30.25,NW,311,7.0,14.0,49,0.00,,---,0.00,VWS V14.01,2013-01-23 16:07:00,
2013-01-23 11:10:00,18.0,2.5,30.25,WSW,244,3.0,14.0,50,0.00,,---,0.00,VWS V14.01,2013-01-23 16:10:00,
2013-01-23 11:12:00,18.2,2.3,30.25,West,274,9.0,14.0,49,0.00,,---,0.00,VWS V14.01,2013-01-23 16:12:00,
2013-01-23 11:15:00,18.0,1.2,30.25,WNW,303,8.0,21.0,47,0.00,,---,0.00,VWS V14.01,2013-01-23 16:15:00,
2013-01-23 11:17:00,17.7,0.9,30.25,NW,313,13.0,18.0,47,0.00,,---,0.00,VWS V14.01,2013-01-23 16:17:00,
2013-01-23 11:20:00,17.5,0.7,30.25,WNW,290,10.0,18.0,47,0.00,,---,0.00,VWS V14.01,2013-01-23 16:20:00,
2013-01-23 11:22:00,17.4,1.1,30.25,West,272,8.0,14.0,48,0.00,,---,0.00,VWS V14.01,2013-01-23 16:22:00,
2013-01-23 11:25:00,17.7,1.8,30.25,NW,309,11.0,14.0,49,0.00,,---,0.00,VWS V14.01,2013-01-23 16:25:00,
2013-01-23 11:27:00,17.8,1.9,30.24,NW,311,6.0,12.0,49,0.00,,---,0.00,VWS V14.01,2013-01-23 16:27:00,
2013-01-23 11:30:00,17.9,2.0,30.24,WNW,294,5.0,13.0,49,0.00,,---,0.00,VWS V14.01,2013-01-23 16:30:00,
2013-01-23 11:32:00,18.2,2.3,30.24,NNW,329,9.0,12.0,49,0.00,,---,0.00,VWS V14.01,2013-01-23 16:32:00,
2013-01-23 11:35:00,18.5,2.1,30.24,WNW,293,7.0,14.0,48,0.00,,---,0.00,VWS V14.01,2013-01-23 16:35:00,
2013-01-23 11:37:00,18.8,2.4,30.24,NW,309,10.0,10.0,48,0.00,,---,0.00,VWS V14.01,2013-01-23 16:37:00,
2013-01-23 11:40:00,18.6,1.7,30.23,WNW,300,8.0,18.0,47,0.00,,---,0.00,VWS V14.01,2013-01-23 16:40:00,
2013-01-23 11:42:00,18.2,1.4,30.23,WNW,297,14.0,16.0,47,0.00,,---,0.00,VWS V14.01,2013-01-23 16:42:00,
2013-01-23 11:45:00,18.1,1.3,30.24,WNW,282,11.0,16.0,47,0.00,,---,0.00,VWS V14.01,2013-01-23 16:45:00,
2013-01-23 11:47:00,18.4,2.4,30.23,WNW,292,9.0,13.0,49,0.00,,---,0.00,VWS V14.01,2013-01-23 16:47:00,
2013-01-23 11:50:00,18.7,2.7,30.23,NW,305,7.0,13.0,49,0.00,,---,0.00,VWS V14.01,2013-01-23 16:50:00,
2013-01-23 11:52:00,19.0,2.1,30.23,WNW,283,9.0,16.0,47,0.00,,---,0.00,VWS V14.01,2013-01-23 16:52:00,
2013-01-23 11:55:00,18.7,1.4,30.23,West,279,4.0,16.0,46,0.00,,---,0.00,VWS V14.01,2013-01-23 16:55:00,
2013-01-23 11:57:00,18.7,1.4,30.22,WNW,286,14.0,14.0,46,0.00,,---,0.00,VWS V14.01,2013-01-23 16:57:00,
2013-01-23 12:00:00,18.4,1.1,30.22,West,280,14.0,19.0,46,0.00,,---,0.00,VWS V14.01,2013-01-23 17:00:00,
2013-01-23 12:02:00,18.4,2.0,30.22,WNW,296,5.0,14.0,48,0.00,,---,0.00,VWS V14.01,2013-01-23 17:02:00,
2013-01-23 12:05:00,18.5,2.1,30.22,West,261,3.0,14.0,48,0.00,,---,0.00,VWS V14.01,2013-01-23 17:05:00,
2013-01-23 12:07:00,18.5,1.6,30.22,NW,315,8.0,17.0,47,0.00,,---,0.00,VWS V14.01,2013-01-23 17:07:00,
2013-01-23 12:10:00,18.4,1.5,30.22,North,358,7.0,17.0,47,0.00,,---,0.00,VWS V14.01,2013-01-23 17:10:00,
2013-01-23 12:12:00,18.4,1.5,30.21,WNW,289,7.0,13.0,47,0.00,,---,0.00,VWS V14.01,2013-01-23 17:12:00,
2013-01-23 12:15:00,18.9,2.9,30.21,NW,309,7.0,13.0,49,0.00,,---,0.00,VWS V14.01,2013-01-23 17:15:00,
2013-01-23 12:17:00,19.2,2.7,30.21,NW,317,6.0,13.0,48,0.00,,---,0.00,VWS V14.01,2013-01-23 17:17:00,
2013-01-23 12:20:00,19.4,2.9,30.21,NNW,328,6.0,14.0,48,0.00,,---,0.00,VWS V14.01,2013-01-23 17:20:00,
2013-01-23 12:22:00,19.5,3.0,30.21,NW,306,6.0,8.0,48,0.00,,---,0.00,VWS V14.01,2013-01-23 17:22:00,
2013-01-23 12:25:00,19.6,2.2,30.21,WNW,284,5.0,14.0,46,0.00,,---,0.00,VWS V14.01,2013-01-23 17:25:00,
2013-01-23 12:27:00,19.5,2.1,30.21,NW,306,4.0,8.0,46,0.00,,---,0.00,VWS V14.01,2013-01-23 17:27:00,
2013-01-23 12:30:00,19.9,2.9,30.20,WNW,300,7.0,8.0,47,0.00,,---,0.00,VWS V14.01,2013-01-23 17:30:00,
2013-01-23 12:32:00,20.3,3.3,30.20,WNW,290,10.0,14.0,47,0.00,,---,0.00,VWS V14.01,2013-01-23 17:32:00,
2013-01-23 12:35:00,19.9,2.0,30.20,WNW,296,10.0,16.0,45,0.00,,---,0.00,VWS V14.01,2013-01-23 17:35:00,
2013-01-23 12:37:00,19.8,1.9,30.20,NW,318,6.0,16.0,45,0.00,,---,0.00,VWS V14.01,2013-01-23 17:37:00,
2013-01-23 12:40:00,19.8,1.9,30.20,WNW,293,14.0,20.0,45,0.00,,---,0.00,VWS V14.01,2013-01-23 17:40:00,
2013-01-23 12:42:00,19.9,2.5,30.20,NW,306,4.0,18.0,46,0.00,,---,0.00,VWS V14.01,2013-01-23 17:42:00,
2013-01-23 12:45:00,19.7,2.3,30.19,West,269,6.0,22.0,46,0.00,,---,0.00,VWS V14.01,2013-01-23 17:45:00,
2013-01-23 12:47:00,19.4,2.0,30.20,West,279,14.0,15.0,46,0.00,,---,0.00,VWS V14.01,2013-01-23 17:47:00,
2013-01-23 12:50:00,19.2,1.8,30.19,WNW,298,12.0,18.0,46,0.00,,---,0.00,VWS V14.01,2013-01-23 17:50:00,
2013-01-23 12:52:00,19.3,1.9,30.19,WNW,300,7.0,13.0,46,0.00,,---,0.00,VWS V14.01,2013-01-23 17:52:00,
2013-01-23 12:55:00,19.8,3.3,30.19,West,278,8.0,18.0,48,0.00,,---,0.00,VWS V14.01,2013-01-23 17:55:00,
2013-01-23 12:57:00,19.9,3.4,30.19,WNW,292,4.0,11.0,48,0.00,,---,0.00,VWS V14.01,2013-01-23 17:57:00,
2013-01-23 13:00:00,19.9,2.9,30.19,WNW,282,15.0,15.0,47,0.00,,---,0.00,VWS V14.01,2013-01-23 18:00:00,
2013-01-23 13:02:00,19.8,3.3,30.19,West,271,5.0,15.0,48,0.00,,---,0.00,VWS V14.01,2013-01-23 18:02:00,
2013-01-23 13:05:00,19.5,2.6,30.19,NW,309,7.0,20.0,47,0.00,,---,0.00,VWS V14.01,2013-01-23 18:05:00,
2013-01-23 13:07:00,19.5,2.6,30.19,NW,307,5.0,12.0,47,0.00,,---,0.00,VWS V14.01,2013-01-23 18:07:00,
2013-01-23 13:10:00,19.9,3.4,30.19,WNW,297,14.0,15.0,48,0.00,,---,0.00,VWS V14.01,2013-01-23 18:10:00,
2013-01-23 13:12:00,19.8,2.4,30.19,WNW,288,13.0,17.0,46,0.00,,---,0.00,VWS V14.01,2013-01-23 18:12:00,
2013-01-23 13:15:00,19.8,2.4,30.19,NW,308,7.0,17.0,46,0.00,,---,0.00,VWS V14.01,2013-01-23 18:15:00,
2013-01-23 13:17:00,20.0,3.5,30.19,WNW,294,14.0,15.0,48,0.00,,---,0.00,VWS V14.01,2013-01-23 18:17:00,
2013-01-23 13:20:00,19.9,2.0,30.19,West,271,8.0,15.0,45,0.00,,---,0.00,VWS V14.01,2013-01-23 18:20:00,
2013-01-23 13:22:00,20.2,2.7,30.19,NNW,331,4.0,9.0,46,0.00,,---,0.00,VWS V14.01,2013-01-23 18:22:00,
2013-01-23 13:25:00,20.4,2.9,30.18,West,261,3.0,14.0,46,0.00,,---,0.00,VWS V14.01,2013-01-23 18:25:00,
2013-01-23 13:27:00,20.4,2.5,30.18,WNW,285,11.0,16.0,45,0.00,,---,0.00,VWS V14.01,2013-01-23 18:27:00,
2013-01-23 13:30:00,20.0,2.6,30.18,WNW,288,9.0,16.0,46,0.00,,---,0.00,VWS V14.01,2013-01-23 18:30:00,
2013-01-23 13:32:00,19.8,1.9,30.19,West,270,8.0,18.0,45,0.00,,---,0.00,VWS V14.01,2013-01-23 18:32:00,
2013-01-23 13:35:00,19.5,1.6,30.19,WNW,301,7.0,18.0,45,0.00,,---,0.00,VWS V14.01,2013-01-23 18:35:00,
2013-01-23 13:37:00,19.4,1.5,30.19,WNW,294,17.0,18.0,45,0.00,,---,0.00,VWS V14.01,2013-01-23 18:37:00,
2013-01-23 13:40:00,19.1,0.8,30.19,WNW,298,6.0,19.0,44,0.00,,---,0.00,VWS V14.01,2013-01-23 18:40:00,
2013-01-23 13:42:00,19.0,0.7,30.19,WNW,284,8.0,18.0,44,0.00,,---,0.00,VWS V14.01,2013-01-23 18:42:00,
2013-01-23 13:45:00,19.1,1.3,30.19,West,271,9.0,18.0,45,0.00,,---,0.00,VWS V14.01,2013-01-23 18:45:00,
2013-01-23 13:47:00,19.1,0.8,30.19,WNW,289,17.0,18.0,44,0.00,,---,0.00,VWS V14.01,2013-01-23 18:47:00,
2013-01-23 13:50:00,19.0,1.2,30.19,WSW,242,8.0,18.0,45,0.00,,---,0.00,VWS V14.01,2013-01-23 18:50:00,
2013-01-23 13:52:00,18.9,1.1,30.19,SW,234,7.0,17.0,45,0.00,,---,0.00,VWS V14.01,2013-01-23 18:52:00,
2013-01-23 13:55:00,18.9,1.1,30.19,NW,313,7.0,17.0,45,0.00,,---,0.00,VWS V14.01,2013-01-23 18:55:00,
2013-01-23 13:57:00,18.9,1.5,30.19,WNW,299,9.0,16.0,46,0.00,,---,0.00,VWS V14.01,2013-01-23 18:57:00,
2013-01-23 14:00:00,18.7,0.9,30.19,West,268,11.0,17.0,45,0.00,,---,0.00,VWS V14.01,2013-01-23 19:00:00,
2013-01-23 14:02:00,18.6,0.8,30.19,NW,321,8.0,17.0,45,0.00,,---,0.00,VWS V14.01,2013-01-23 19:02:00,
2013-01-23 14:05:00,18.5,0.7,30.19,NW,325,8.0,17.0,45,0.00,,---,0.00,VWS V14.01,2013-01-23 19:05:00,
2013-01-23 14:07:00,18.5,1.2,30.19,West,281,7.0,22.0,46,0.00,,---,0.00,VWS V14.01,2013-01-23 19:07:00,
2013-01-23 14:10:00,19.9,2.9,30.19,West,279,3.0,16.0,47,0.00,,---,0.00,VWS V14.01,2013-01-23 19:10:00,
2013-01-23 14:12:00,18.4,1.1,30.19,WNW,302,10.0,16.0,46,0.00,,---,0.00,VWS V14.01,2013-01-23 19:12:00,
2013-01-23 14:15:00,18.4,1.5,30.19,WNW,298,13.0,16.0,47,0.00,,---,0.00,VWS V14.01,2013-01-23 19:15:00,
2013-01-23 14:17:00,18.4,1.1,30.19,NW,306,6.0,15.0,46,0.00,,---,0.00,VWS V14.01,2013-01-23 19:17:00,
2013-01-23 14:20:00,18.5,1.6,30.19,NW,304,9.0,15.0,47,0.00,,---,0.00,VWS V14.01,2013-01-23 19:20:00,
2013-01-23 14:22:00,18.7,2.3,30.19,NW,311,5.0,15.0,48,0.00,,---,0.00,VWS V14.01,2013-01-23 19:22:00,
2013-01-23 14:25:00,19.2,3.2,30.18,WNW,302,7.0,15.0,49,0.00,,---,0.00,VWS V14.01,2013-01-23 19:25:00,
2013-01-23 14:27:00,19.4,3.4,30.18,NW,322,9.0,12.0,49,0.00,,---,0.00,VWS V14.01,2013-01-23 19:27:00,
2013-01-23 14:30:00,19.4,2.5,30.18,West,271,3.0,12.0,47,0.00,,---,0.00,VWS V14.01,2013-01-23 19:30:00,
2013-01-23 14:32:00,19.5,2.1,30.18,NW,309,1.0,7.0,46,0.00,,---,0.00,VWS V14.01,2013-01-23 19:32:00,
2013-01-23 14:35:00,20.0,3.5,30.18,WNW,293,6.0,9.0,48,0.00,,---,0.00,VWS V14.01,2013-01-23 19:35:00,
2013-01-23 14:36:00,20.3,3.3,30.18,WNW,290,7.0,16.0,47,0.00,,---,0.00,VWS V14.01,2013-01-23 19:36:00,
2013-01-23 14:40:00,20.3,2.4,30.18,NNW,327,8.0,16.0,45,0.00,,---,0.00,VWS V14.01,2013-01-23 19:40:00,
2013-01-23 14:41:00,20.2,2.3,30.19,WNW,282,6.0,13.0,45,0.00,,---,0.00,VWS V14.01,2013-01-23 19:41:00,
2013-01-23 14:45:00,20.0,2.1,30.18,West,273,5.0,13.0,45,0.00,,---,0.00,VWS V14.01,2013-01-23 19:45:00,
2013-01-23 14:46:00,19.7,1.8,30.19,West,271,9.0,19.0,45,0.00,,---,0.00,VWS V14.01,2013-01-23 19:46:00,
2013-01-23 14:50:00,19.5,2.1,30.19,NW,311,6.0,19.0,46,0.00,,---,0.00,VWS V14.01,2013-01-23 19:50:00,
2013-01-23 14:51:00,19.6,2.7,30.19,WSW,253,7.0,14.0,47,0.00,,---,0.00,VWS V14.01,2013-01-23 19:51:00,
2013-01-23 14:55:00,19.7,1.8,30.19,WNW,294,8.0,16.0,45,0.00,,---,0.00,VWS V14.01,2013-01-23 19:55:00,
2013-01-23 14:56:00,19.7,1.3,30.19,WNW,301,15.0,16.0,44,0.00,,---,0.00,VWS V14.01,2013-01-23 19:56:00,
2013-01-23 15:00:00,19.9,2.0,30.19,WNW,284,7.0,16.0,45,0.00,,---,0.00,VWS V14.01,2013-01-23 20:00:00,
2013-01-23 15:01:00,20.1,3.1,30.19,West,259,6.0,16.0,47,0.00,,---,0.00,VWS V14.01,2013-01-23 20:01:00,
2013-01-23 15:05:00,20.2,3.2,30.19,WSW,252,6.0,16.0,47,0.00,,---,0.00,VWS V14.01,2013-01-23 20:05:00,
2013-01-23 15:06:00,20.0,3.0,30.19,WSW,258,10.0,15.0,47,0.00,,---,0.00,VWS V14.01,2013-01-23 20:06:00,
2013-01-23 15:10:00,19.9,2.9,30.19,West,279,3.0,16.0,47,0.00,,---,0.00,VWS V14.01,2013-01-23 20:10:00,
2013-01-23 15:11:00,19.9,2.9,30.19,WNW,298,15.0,18.0,47,0.00,,---,0.00,VWS V14.01,2013-01-23 20:11:00,
2013-01-23 15:15:00,19.8,2.8,30.19,West,275,5.0,18.0,47,0.00,,---,0.00,VWS V14.01,2013-01-23 20:15:00,
2013-01-23 15:16:00,19.7,3.2,30.19,WNW,290,11.0,16.0,48,0.00,,---,0.00,VWS V14.01,2013-01-23 20:16:00,
2013-01-23 15:20:00,19.3,2.4,30.19,West,279,6.0,16.0,47,0.00,,---,0.00,VWS V14.01,2013-01-23 20:20:00,
2013-01-23 15:21:00,19.0,3.0,30.19,NW,315,9.0,15.0,49,0.00,,---,0.00,VWS V14.01,2013-01-23 20:21:00,
2013-01-23 15:25:00,18.9,3.3,30.19,West,267,5.0,15.0,50,0.00,,---,0.00,VWS V14.01,2013-01-23 20:25:00,
2013-01-23 15:26:00,18.9,2.5,30.19,West,264,5.0,13.0,48,0.00,,---,0.00,VWS V14.01,2013-01-23 20:26:00,
2013-01-23 15:30:00,18.9,2.0,30.19,WNW,298,6.0,15.0,47,0.00,,---,0.00,VWS V14.01,2013-01-23 20:30:00,
2013-01-23 15:31:00,18.9,2.0,30.19,WNW,290,11.0,14.0,47,0.00,,---,0.00,VWS V14.01,2013-01-23 20:31:00,
2013-01-23 15:35:00,19.1,2.2,30.19,NW,318,7.0,14.0,47,0.00,,---,0.00,VWS V14.01,2013-01-23 20:35:00,
2013-01-23 15:36:00,19.2,2.7,30.19,NW,305,12.0,16.0,48,0.00,,---,0.00,VWS V14.01,2013-01-23 20:36:00,
2013-01-23 15:40:00,19.2,2.7,30.19,WNW,288,9.0,16.0,48,0.00,,---,0.00,VWS V14.01,2013-01-23 20:40:00,
2013-01-23 15:41:00,19.2,3.2,30.19,WNW,302,9.0,12.0,49,0.00,,---,0.00,VWS V14.01,2013-01-23 20:41:00,
2013-01-23 15:45:00,19.2,3.6,30.19,WNW,300,6.0,13.0,50,0.00,,---,0.00,VWS V14.01,2013-01-23 20:45:00,
2013-01-23 15:46:00,19.2,4.1,30.19,WSW,243,5.0,13.0,51,0.00,,---,0.00,VWS V14.01,2013-01-23 20:46:00,
2013-01-23 15:50:00,19.0,3.4,30.19,NW,307,6.0,13.0,50,0.00,,---,0.00,VWS V14.01,2013-01-23 20:50:00,
2013-01-23 15:51:00,19.0,3.4,30.19,NW,314,6.0,13.0,50,0.00,,---,0.00,VWS V14.01,2013-01-23 20:51:00,
2013-01-23 15:55:00,18.9,3.3,30.19,NW,311,3.0,13.0,50,0.00,,---,0.00,VWS V14.01,2013-01-23 20:55:00,
2013-01-23 15:56:00,18.9,2.9,30.19,WNW,298,8.0,15.0,49,0.00,,---,0.00,VWS V14.01,2013-01-23 20:56:00,
2013-01-23 16:00:00,18.7,2.7,30.19,West,267,5.0,15.0,49,0.00,,---,0.00,VWS V14.01,2013-01-23 21:00:00,
2013-01-23 16:01:00,18.7,2.7,30.19,West,276,4.0,13.0,49,0.00,,---,0.00,VWS V14.01,2013-01-23 21:01:00,
2013-01-23 16:05:00,18.5,3.0,30.19,WNW,292,9.0,14.0,50,0.00,,---,0.00,VWS V14.01,2013-01-23 21:05:00,
2013-01-23 16:06:00,18.3,3.2,30.19,NW,305,7.0,10.0,51,0.00,,---,0.00,VWS V14.01,2013-01-23 21:06:00,
2013-01-23 16:10:00,18.3,3.6,30.19,West,281,7.0,11.0,52,0.00,,---,0.00,VWS V14.01,2013-01-23 21:10:00,
2013-01-23 16:11:00,18.4,3.7,30.19,WNW,282,7.0,10.0,52,0.00,,---,0.00,VWS V14.01,2013-01-23 21:11:00,
2013-01-23 16:15:00,18.4,3.7,30.19,WNW,285,2.0,10.0,52,0.00,,---,0.00,VWS V14.01,2013-01-23 21:15:00,
2013-01-23 16:16:00,18.5,3.4,30.19,WNW,300,8.0,8.0,51,0.00,,---,0.00,VWS V14.01,2013-01-23 21:16:00,
2013-01-23 16:20:00,18.4,3.7,30.19,WNW,282,4.0,14.0,52,0.00,,---,0.00,VWS V14.01,2013-01-23 21:20:00,
2013-01-23 16:21:00,18.3,3.6,30.19,WNW,300,4.0,11.0,52,0.00,,---,0.00,VWS V14.01,2013-01-23 21:21:00,
2013-01-23 16:25:00,18.2,4.0,30.19,WNW,302,3.0,11.0,53,0.00,,---,0.00,VWS V14.01,2013-01-23 21:25:00,
2013-01-23 16:26:00,18.1,3.9,30.19,WNW,290,6.0,8.0,53,0.00,,---,0.00,VWS V14.01,2013-01-23 21:26:00,
2013-01-23 16:30:00,18.0,4.2,30.19,NW,311,3.0,10.0,54,0.00,,---,0.00,VWS V14.01,2013-01-23 21:30:00,
2013-01-23 16:31:00,18.0,4.6,30.20,WNW,298,4.0,12.0,55,0.00,,---,0.00,VWS V14.01,2013-01-23 21:31:00,
2013-01-23 16:35:00,17.9,4.1,30.19,West,271,6.0,12.0,54,0.00,,---,0.00,VWS V14.01,2013-01-23 21:35:00,
2013-01-23 16:36:00,17.8,4.0,30.20,WNW,296,6.0,11.0,54,0.00,,---,0.00,VWS V14.01,2013-01-23 21:36:00,
2013-01-23 16:40:00,17.7,4.3,30.20,NW,310,9.0,11.0,55,0.00,,---,0.00,VWS V14.01,2013-01-23 21:40:00,
2013-01-23 16:41:00,17.6,4.2,30.20,NW,309,8.0,10.0,55,0.00,,---,0.00,VWS V14.01,2013-01-23 21:41:00,
2013-01-23 16:45:00,17.6,4.6,30.20,WNW,294,8.0,10.0,56,0.00,,---,0.00,VWS V14.01,2013-01-23 21:45:00,
2013-01-23 16:46:00,17.5,4.5,30.20,WNW,295,11.0,11.0,56,0.00,,---,0.00,VWS V14.01,2013-01-23 21:46:00,
2013-01-23 16:50:00,17.5,4.5,30.20,NW,309,5.0,11.0,56,0.00,,---,0.00,VWS V14.01,2013-01-23 21:50:00,
2013-01-23 16:51:00,17.4,4.4,30.19,WNW,298,6.0,8.0,56,0.00,,---,0.00,VWS V14.01,2013-01-23 21:51:00,
2013-01-23 16:55:00,17.3,4.7,30.20,NW,315,2.0,10.0,57,0.00,,---,0.00,VWS V14.01,2013-01-23 21:55:00,
2013-01-23 16:56:00,17.2,4.6,30.20,NW,317,4.0,7.0,57,0.00,,---,0.00,VWS V14.01,2013-01-23 21:56:00,
2013-01-23 17:00:00,17.2,4.6,30.20,WNW,302,5.0,8.0,57,0.00,,---,0.00,VWS V14.01,2013-01-23 22:00:00,
2013-01-23 17:01:00,17.2,4.6,30.20,WNW,291,7.0,9.0,57,0.00,,---,0.00,VWS V14.01,2013-01-23 22:01:00,
2013-01-23 17:05:00,17.2,4.6,30.20,NW,304,5.0,12.0,57,0.00,,---,0.00,VWS V14.01,2013-01-23 22:05:00,
2013-01-23 17:06:00,17.2,4.6,30.20,WNW,294,6.0,9.0,57,0.00,,---,0.00,VWS V14.01,2013-01-23 22:06:00,
2013-01-23 17:10:00,17.2,4.6,30.20,NW,305,4.0,9.0,57,0.00,,---,0.00,VWS V14.01,2013-01-23 22:10:00,
2013-01-23 17:11:00,17.1,4.5,30.20,WNW,302,3.0,11.0,57,0.00,,---,0.00,VWS V14.01,2013-01-23 22:11:00,
2013-01-23 17:15:00,17.1,4.5,30.20,NW,315,2.0,11.0,57,0.00,,---,0.00,VWS V14.01,2013-01-23 22:15:00,
2013-01-23 17:16:00,17.1,4.5,30.20,WNW,296,6.0,9.0,57,0.00,,---,0.00,VWS V14.01,2013-01-23 22:16:00,
2013-01-23 17:20:00,17.1,4.5,30.21,WNW,303,6.0,9.0,57,0.00,,---,0.00,VWS V14.01,2013-01-23 22:20:00,
2013-01-23 17:21:00,17.1,4.5,30.21,NW,309,3.0,9.0,57,0.00,,---,0.00,VWS V14.01,2013-01-23 22:21:00,
2013-01-23 17:25:00,17.0,4.8,30.20,NW,316,2.0,9.0,58,0.00,,---,0.00,VWS V14.01,2013-01-23 22:25:00,
2013-01-23 17:26:00,17.0,4.8,30.20,NW,316,3.0,4.0,58,0.00,,---,0.00,VWS V14.01,2013-01-23 22:26:00,
2013-01-23 17:30:00,16.9,4.7,30.20,WNW,296,5.0,6.0,58,0.00,,---,0.00,VWS V14.01,2013-01-23 22:30:00,
2013-01-23 17:31:00,16.9,4.7,30.21,WNW,296,4.0,5.0,58,0.00,,---,0.00,VWS V14.01,2013-01-23 22:31:00,
2013-01-23 17:35:00,16.8,4.6,30.20,NW,310,4.0,7.0,58,0.00,,---,0.00,VWS V14.01,2013-01-23 22:35:00,
2013-01-23 17:36:00,16.8,4.6,30.21,NW,326,3.0,7.0,58,0.00,,---,0.00,VWS V14.01,2013-01-23 22:36:00,
2013-01-23 17:40:00,16.8,5.0,30.21,NW,307,2.0,7.0,59,0.00,,---,0.00,VWS V14.01,2013-01-23 22:40:00,
2013-01-23 17:41:00,16.8,4.6,30.21,WNW,293,3.0,8.0,58,0.00,,---,0.00,VWS V14.01,2013-01-23 22:41:00,
2013-01-23 17:45:00,16.8,4.6,30.21,NW,323,3.0,8.0,58,0.00,,---,0.00,VWS V14.01,2013-01-23 22:45:00,
2013-01-23 17:46:00,16.8,5.0,30.21,NW,304,2.0,5.0,59,0.00,,---,0.00,VWS V14.01,2013-01-23 22:46:00,
2013-01-23 17:50:00,16.7,4.9,30.21,NW,306,6.0,6.0,59,0.00,,---,0.00,VWS V14.01,2013-01-23 22:50:00,
2013-01-23 17:51:00,16.7,4.9,30.22,WNW,293,4.0,7.0,59,0.00,,---,0.00,VWS V14.01,2013-01-23 22:51:00,
2013-01-23 17:55:00,16.6,4.8,30.22,NW,311,4.0,11.0,59,0.00,,---,0.00,VWS V14.01,2013-01-23 22:55:00,
2013-01-23 17:56:00,16.6,4.8,30.22,WNW,292,4.0,6.0,59,0.00,,---,0.00,VWS V14.01,2013-01-23 22:56:00,
2013-01-23 18:00:00,16.6,4.8,30.22,WNW,295,9.0,9.0,59,0.00,,---,0.00,VWS V14.01,2013-01-23 23:00:00,
2013-01-23 18:01:00,16.6,4.8,30.22,WNW,296,4.0,9.0,59,0.00,,---,0.00,VWS V14.01,2013-01-23 23:01:00,
2013-01-23 18:05:00,16.7,4.9,30.22,NW,315,3.0,9.0,59,0.00,,---,0.00,VWS V14.01,2013-01-23 23:05:00,
2013-01-23 18:06:00,16.6,4.8,30.22,NW,315,1.0,5.0,59,0.00,,---,0.00,VWS V14.01,2013-01-23 23:06:00,
2013-01-23 18:10:00,16.5,5.1,30.22,NW,315,1.0,5.0,60,0.00,,---,0.00,VWS V14.01,2013-01-23 23:10:00,
2013-01-23 18:11:00,16.4,5.0,30.22,NW,315,4.0,4.0,60,0.00,,---,0.00,VWS V14.01,2013-01-23 23:11:00,
2013-01-23 18:15:00,16.4,5.3,30.22,WNW,300,2.0,6.0,61,0.00,,---,0.00,VWS V14.01,2013-01-23 23:15:00,
2013-01-23 18:16:00,16.4,5.3,30.22,WNW,300,2.0,3.0,61,0.00,,---,0.00,VWS V14.01,2013-01-23 23:16:00,
2013-01-23 18:20:00,16.3,5.2,30.22,WNW,300,4.0,5.0,61,0.00,,---,0.00,VWS V14.01,2013-01-23 23:20:00,
2013-01-23 18:21:00,16.3,5.2,30.22,WNW,300,1.0,4.0,61,0.00,,---,0.00,VWS V14.01,2013-01-23 23:21:00,
2013-01-23 18:25:00,16.2,5.1,30.22,WNW,301,2.0,4.0,61,0.00,,---,0.00,VWS V14.01,2013-01-23 23:25:00,
2013-01-23 18:26:00,16.2,5.1,30.22,WNW,301,1.0,4.0,61,0.00,,---,0.00,VWS V14.01,2013-01-23 23:26:00,
2013-01-23 18:30:00,16.1,5.4,30.22,WNW,301,1.0,4.0,62,0.00,,---,0.00,VWS V14.01,2013-01-23 23:30:00,
2013-01-23 18:31:00,16.1,5.0,30.22,NW,308,3.0,3.0,61,0.00,,---,0.00,VWS V14.01,2013-01-23 23:31:00,
2013-01-23 18:35:00,15.9,5.2,30.22,NW,308,0.0,3.0,62,0.00,,---,0.00,VWS V14.01,2013-01-23 23:35:00,
2013-01-23 18:36:00,15.8,5.1,30.22,NW,308,1.0,3.0,62,0.00,,---,0.00,VWS V14.01,2013-01-23 23:36:00,
2013-01-23 18:40:00,15.7,5.4,30.22,NW,304,2.0,5.0,63,0.00,,---,0.00,VWS V14.01,2013-01-23 23:40:00,
2013-01-23 18:41:00,15.7,5.4,30.22,NW,304,1.0,2.0,63,0.00,,---,0.00,VWS V14.01,2013-01-23 23:41:00,
2013-01-23 18:45:00,15.7,5.4,30.22,NW,304,2.0,3.0,63,0.00,,---,0.00,VWS V14.01,2013-01-23 23:45:00,
2013-01-23 18:46:00,15.7,5.4,30.22,NW,304,1.0,2.0,63,0.00,,---,0.00,VWS V14.01,2013-01-23 23:46:00,
2013-01-23 18:50:00,15.5,5.2,30.22,NW,304,0.0,2.0,63,0.00,,---,0.00,VWS V14.01,2013-01-23 23:50:00,
2013-01-23 18:51:00,15.5,5.5,30.22,NW,304,2.0,2.0,64,0.00,,---,0.00,VWS V14.01,2013-01-23 23:51:00,
2013-01-23 18:55:00,15.6,5.6,30.22,NW,304,1.0,5.0,64,0.00,,---,0.00,VWS V14.01,2013-01-23 23:55:00,
2013-01-23 18:56:00,15.5,5.5,30.22,NW,304,1.0,3.0,64,0.00,,---,0.00,VWS V14.01,2013-01-23 23:56:00,
2013-01-23 19:00:00,15.5,5.5,30.22,NW,304,2.0,4.0,64,0.00,,---,0.00,VWS V14.01,2013-01-24 00:00:00,
2013-01-23 19:01:00,15.4,5.4,30.22,NW,304,0.0,3.0,64,0.00,,---,0.00,VWS V14.01,2013-01-24 00:01:00,
2013-01-23 19:05:00,15.5,5.8,30.22,NW,304,0.0,3.0,65,0.00,,---,0.00,VWS V14.01,2013-01-24 00:05:00,
2013-01-23 19:06:00,15.4,5.8,30.22,NW,304,0.0,1.0,65,0.00,,---,0.00,VWS V14.01,2013-01-24 00:06:00,
2013-01-23 19:10:00,15.2,5.9,30.22,NW,304,0.0,1.0,66,0.00,,---,0.00,VWS V14.01,2013-01-24 00:10:00,
2013-01-23 19:11:00,15.1,5.8,30.22,NW,304,0.0,0.0,66,0.00,,---,0.00,VWS V14.01,2013-01-24 00:11:00,
2013-01-23 19:15:00,14.8,6.2,30.22,NW,304,0.0,0.0,68,0.00,,---,0.00,VWS V14.01,2013-01-24 00:15:00,
2013-01-23 19:16:00,14.7,6.1,30.21,NW,304,0.0,0.0,68,0.00,,---,0.00,VWS V14.01,2013-01-24 00:16:00,
2013-01-23 19:20:00,14.5,6.2,30.21,NW,304,0.0,1.0,69,0.00,,---,0.00,VWS V14.01,2013-01-24 00:20:00,
2013-01-23 19:21:00,14.5,6.2,30.21,NW,304,0.0,1.0,69,0.00,,---,0.00,VWS V14.01,2013-01-24 00:21:00,
2013-01-23 19:25:00,14.4,6.1,30.21,NW,304,0.0,1.0,69,0.00,,---,0.00,VWS V14.01,2013-01-24 00:25:00,
2013-01-23 19:26:00,14.4,6.1,30.21,NW,304,0.0,1.0,69,0.00,,---,0.00,VWS V14.01,2013-01-24 00:26:00,
2013-01-23 19:30:00,14.2,6.2,30.21,NW,304,0.0,1.0,70,0.00,,---,0.00,VWS V14.01,2013-01-24 00:30:00,
2013-01-23 19:31:00,14.2,6.2,30.21,NW,304,0.0,0.0,70,0.00,,---,0.00,VWS V14.01,2013-01-24 00:31:00,
2013-01-23 19:35:00,14.3,6.3,30.21,NW,304,0.0,0.0,70,0.00,,---,0.00,VWS V14.01,2013-01-24 00:35:00,
2013-01-23 19:36:00,14.3,6.3,30.21,NW,304,0.0,0.0,70,0.00,,---,0.00,VWS V14.01,2013-01-24 00:36:00,
2013-01-23 19:40:00,14.1,6.1,30.21,NW,304,0.0,0.0,70,0.00,,---,0.00,VWS V14.01,2013-01-24 00:40:00,
2013-01-23 19:41:00,13.9,5.9,30.21,NW,304,0.0,0.0,70,0.00,,---,0.00,VWS V14.01,2013-01-24 00:41:00,
2013-01-23 19:45:00,13.7,6.1,30.21,NW,304,0.0,0.0,71,0.00,,---,0.00,VWS V14.01,2013-01-24 00:45:00,
2013-01-23 19:46:00,13.7,6.1,30.21,NW,304,0.0,0.0,71,0.00,,---,0.00,VWS V14.01,2013-01-24 00:46:00,
2013-01-23 19:50:00,13.6,6.3,30.21,NW,304,0.0,0.0,72,0.00,,---,0.00,VWS V14.01,2013-01-24 00:50:00,
2013-01-23 19:51:00,13.6,6.3,30.21,NW,304,0.0,0.0,72,0.00,,---,0.00,VWS V14.01,2013-01-24 00:51:00,
2013-01-23 19:55:00,13.7,6.4,30.21,NW,304,0.0,0.0,72,0.00,,---,0.00,VWS V14.01,2013-01-24 00:55:00,
2013-01-23 19:56:00,13.7,6.4,30.21,NW,304,0.0,0.0,72,0.00,,---,0.00,VWS V14.01,2013-01-24 00:56:00,
2013-01-23 20:00:00,13.5,5.9,30.21,NW,304,0.0,0.0,71,0.00,,---,0.00,VWS V14.01,2013-01-24 01:00:00,
2013-01-23 20:01:00,13.4,6.1,30.21,NW,304,0.0,0.0,72,0.00,,---,0.00,VWS V14.01,2013-01-24 01:01:00,
2013-01-23 20:05:00,13.1,5.8,30.21,NW,304,0.0,0.0,72,0.00,,---,0.00,VWS V14.01,2013-01-24 01:05:00,
2013-01-23 20:06:00,13.0,6.0,30.21,NW,304,0.0,0.0,73,0.00,,---,0.00,VWS V14.01,2013-01-24 01:06:00,
2013-01-23 20:10:00,12.6,5.9,30.21,NW,304,0.0,0.0,74,0.00,,---,0.00,VWS V14.01,2013-01-24 01:10:00,
2013-01-23 20:11:00,12.5,5.8,30.21,NW,304,0.0,0.0,74,0.00,,---,0.00,VWS V14.01,2013-01-24 01:11:00,
2013-01-23 20:15:00,12.2,5.8,30.21,NW,304,0.0,0.0,75,0.00,,---,0.00,VWS V14.01,2013-01-24 01:15:00,
2013-01-23 20:16:00,12.1,6.0,30.21,NW,304,0.0,0.0,76,0.00,,---,0.00,VWS V14.01,2013-01-24 01:16:00,
2013-01-23 20:20:00,11.8,6.0,30.21,NW,304,0.0,0.0,77,0.00,,---,0.00,VWS V14.01,2013-01-24 01:20:00,
2013-01-23 20:21:00,11.8,6.0,30.21,NW,304,0.0,0.0,77,0.00,,---,0.00,VWS V14.01,2013-01-24 01:21:00,
2013-01-23 20:25:00,11.7,6.2,30.21,NW,304,0.0,0.0,78,0.00,,---,0.00,VWS V14.01,2013-01-24 01:25:00,
2013-01-23 20:26:00,11.7,6.2,30.21,NW,304,0.0,0.0,78,0.00,,---,0.00,VWS V14.01,2013-01-24 01:26:00,
2013-01-23 20:30:00,11.7,6.5,30.21,NW,304,0.0,0.0,79,0.00,,---,0.00,VWS V14.01,2013-01-24 01:30:00,
2013-01-23 20:31:00,11.6,6.4,30.21,NW,304,0.0,0.0,79,0.00,,---,0.00,VWS V14.01,2013-01-24 01:31:00,
2013-01-23 20:35:00,11.5,6.3,30.21,NW,304,0.0,0.0,79,0.00,,---,0.00,VWS V14.01,2013-01-24 01:35:00,
2013-01-23 20:36:00,11.5,6.3,30.21,NW,304,0.0,0.0,79,0.00,,---,0.00,VWS V14.01,2013-01-24 01:36:00,
2013-01-23 20:40:00,11.3,6.1,30.21,NW,304,0.0,0.0,79,0.00,,---,0.00,VWS V14.01,2013-01-24 01:40:00,
2013-01-23 20:41:00,11.4,6.4,30.21,NW,304,0.0,0.0,80,0.00,,---,0.00,VWS V14.01,2013-01-24 01:41:00,
2013-01-23 20:45:00,11.6,6.6,30.20,NW,304,0.0,0.0,80,0.00,,---,0.00,VWS V14.01,2013-01-24 01:45:00,
2013-01-23 20:46:00,11.7,6.7,30.20,NW,304,0.0,0.0,80,0.00,,---,0.00,VWS V14.01,2013-01-24 01:46:00,
2013-01-23 20:50:00,11.8,6.8,30.20,NW,304,0.0,0.0,80,0.00,,---,0.00,VWS V14.01,2013-01-24 01:50:00,
2013-01-23 20:51:00,11.8,6.8,30.20,NW,304,0.0,0.0,80,0.00,,---,0.00,VWS V14.01,2013-01-24 01:51:00,
2013-01-23 20:55:00,11.8,6.8,30.20,NW,304,1.0,1.0,80,0.00,,---,0.00,VWS V14.01,2013-01-24 01:55:00,
2013-01-23 20:56:00,11.8,6.8,30.20,NW,304,0.0,1.0,80,0.00,,---,0.00,VWS V14.01,2013-01-24 01:56:00,
2013-01-23 21:00:00,11.7,6.5,30.20,NW,304,0.0,1.0,79,0.00,,---,0.00,VWS V14.01,2013-01-24 02:00:00,
2013-01-23 21:01:00,11.7,6.5,30.20,NW,304,0.0,0.0,79,0.00,,---,0.00,VWS V14.01,2013-01-24 02:01:00,
2013-01-23 21:05:00,11.9,6.7,30.20,NW,304,0.0,0.0,79,0.00,,---,0.00,VWS V14.01,2013-01-24 02:05:00,
2013-01-23 21:06:00,11.9,6.7,30.20,NW,304,0.0,0.0,79,0.00,,---,0.00,VWS V14.01,2013-01-24 02:06:00,
2013-01-23 21:10:00,11.5,6.3,30.20,NW,304,0.0,0.0,79,0.00,,---,0.00,VWS V14.01,2013-01-24 02:10:00,
2013-01-23 21:15:00,11.0,5.8,30.20,NW,304,0.0,0.0,79,0.00,,---,0.00,VWS V14.01,2013-01-24 02:15:00,
2013-01-23 21:20:00,10.5,5.6,30.20,NW,304,0.0,0.0,80,0.00,,---,0.00,VWS V14.01,2013-01-24 02:20:00,
2013-01-23 21:25:00,10.3,5.6,30.20,NW,304,0.0,0.0,81,0.00,,---,0.00,VWS V14.01,2013-01-24 02:25:00,
2013-01-23 21:30:00,10.5,6.1,30.20,NW,304,0.0,0.0,82,0.00,,---,0.00,VWS V14.01,2013-01-24 02:30:00,
2013-01-23 21:35:00,10.8,6.7,30.20,NW,304,0.0,0.0,83,0.00,,---,0.00,VWS V14.01,2013-01-24 02:35:00,
2013-01-23 21:40:00,10.8,6.4,30.20,NW,304,0.0,0.0,82,0.00,,---,0.00,VWS V14.01,2013-01-24 02:40:00,
2013-01-23 21:45:00,10.9,6.8,30.20,NW,304,0.0,0.0,83,0.00,,---,0.00,VWS V14.01,2013-01-24 02:45:00,
2013-01-23 21:50:00,10.9,6.5,30.20,NW,304,0.0,0.0,82,0.00,,---,0.00,VWS V14.01,2013-01-24 02:50:00,
2013-01-23 21:55:00,10.6,5.9,30.20,NW,304,0.0,0.0,81,0.00,,---,0.00,VWS V14.01,2013-01-24 02:55:00,
2013-01-23 22:00:00,9.9,5.5,30.20,NW,304,0.0,0.0,82,0.00,,---,0.00,VWS V14.01,2013-01-24 03:00:00,
2013-01-23 22:05:00,9.4,5.3,30.20,NW,304,0.0,0.0,83,0.00,,---,0.00,VWS V14.01,2013-01-24 03:05:00,
2013-01-23 22:10:00,9.2,5.4,30.21,NW,304,0.0,0.0,84,0.00,,---,0.00,VWS V14.01,2013-01-24 03:10:00,
2013-01-23 22:15:00,9.3,5.7,30.21,NW,304,0.0,0.0,85,0.00,,---,0.00,VWS V14.01,2013-01-24 03:15:00,
2013-01-23 22:20:00,9.3,5.7,30.21,NW,304,0.0,0.0,85,0.00,,---,0.00,VWS V14.01,2013-01-24 03:20:00,
2013-01-23 22:25:00,9.1,5.5,30.21,NW,304,0.0,0.0,85,0.00,,---,0.00,VWS V14.01,2013-01-24 03:25:00,
2013-01-23 22:30:00,9.2,5.9,30.21,NW,304,0.0,0.0,86,0.00,,---,0.00,VWS V14.01,2013-01-24 03:30:00,
2013-01-23 22:35:00,9.6,6.3,30.21,NW,304,0.0,0.0,86,0.00,,---,0.00,VWS V14.01,2013-01-24 03:35:00,
2013-01-23 22:40:00,9.8,6.2,30.20,NW,304,0.0,0.0,85,0.00,,---,0.00,VWS V14.01,2013-01-24 03:40:00,
2013-01-23 22:45:00,10.0,6.4,30.20,NW,304,0.0,0.0,85,0.00,,---,0.00,VWS V14.01,2013-01-24 03:45:00,
2013-01-23 22:50:00,10.0,6.4,30.20,NW,304,0.0,0.0,85,0.00,,---,0.00,VWS V14.01,2013-01-24 03:50:00,
2013-01-23 22:55:00,9.8,5.9,30.20,NW,304,0.0,0.0,84,0.00,,---,0.00,VWS V14.01,2013-01-24 03:55:00,
2013-01-23 23:00:00,9.8,6.2,30.20,NW,304,0.0,0.0,85,0.00,,---,0.00,VWS V14.01,2013-01-24 04:00:00,
2013-01-23 23:05:00,9.9,6.3,30.20,NW,304,0.0,0.0,85,0.00,,---,0.00,VWS V14.01,2013-01-24 04:05:00,
2013-01-23 23:10:00,9.9,6.3,30.20,NW,304,0.0,0.0,85,0.00,,---,0.00,VWS V14.01,2013-01-24 04:10:00,
2013-01-23 23:15:00,9.9,6.3,30.20,NW,304,0.0,0.0,85,0.00,,---,0.00,VWS V14.01,2013-01-24 04:15:00,
2013-01-23 23:20:00,9.8,6.2,30.20,NW,304,0.0,0.0,85,0.00,,---,0.00,VWS V14.01,2013-01-24 04:20:00,
2013-01-23 23:25:00,9.9,6.6,30.20,NW,304,0.0,0.0,86,0.00,,---,0.00,VWS V14.01,2013-01-24 04:25:00,
2013-01-23 23:30:00,9.9,6.6,30.20,NW,304,0.0,0.0,86,0.00,,---,0.00,VWS V14.01,2013-01-24 04:30:00,
2013-01-23 23:35:00,9.9,6.6,30.19,NW,304,0.0,0.0,86,0.00,,---,0.00,VWS V14.01,2013-01-24 04:35:00,
2013-01-23 23:40:00,9.7,6.4,30.19,NW,304,0.0,0.0,86,0.00,,---,0.00,VWS V14.01,2013-01-24 04:40:00,
2013-01-23 23:44:00,9.5,6.2,30.19,NW,304,0.0,0.0,86,0.00,,---,0.00,VWS V14.01,2013-01-24 04:44:00,
2013-01-23 23:45:00,9.4,6.1,30.19,NW,304,0.0,0.0,86,0.00,,---,0.00,VWS V14.01,2013-01-24 04:45:00,
2013-01-23 23:49:00,9.4,6.1,30.19,NW,304,0.0,0.0,86,0.00,,---,0.00,VWS V14.01,2013-01-24 04:49:00,
2013-01-23 23:50:00,9.4,6.1,30.19,NW,304,0.0,0.0,86,0.00,,---,0.00,VWS V14.01,2013-01-24 04:50:00,
2013-01-23 23:54:00,9.6,6.5,30.19,NW,304,0.0,1.0,87,0.00,,---,0.00,VWS V14.01,2013-01-24 04:54:00,
2013-01-23 23:55:00,9.6,6.5,30.19,NW,304,0.0,1.0,87,0.00,,---,0.00,VWS V14.01,2013-01-24 04:55:00,
2013-01-23 23:59:00,10.1,7.0,30.18,NW,304,0.0,0.0,87,0.00,,---,0.00,VWS V14.01,2013-01-24 04:59:00,